Location: Champs
(48.8539°N, 2.6040°E)
Time: 12:37:44
(UTC+00:00)

Cosmos 1538 Rocket - Pass Details

Date: 26 May 2022
Orbit: 752 x 791 km, 74.0° (Epoch: 28 June)

Event Time Altitude Azimuth Distance (km) Brightness Sun altitude
Rises 22:55:35 0° 325° (NW) 3,250 8.5 -19.0°
Reaches altitude 10° 22:58:33 10° 309° (NW) 2,310 7.2 -19.1°
Maximum altitude 23:02:13 20° 264° (W) 1,726 5.9 -19.2°
Enters shadow 23:04:42 14° 230° (SW) 2,001 5.9 -19.3°
